Location: Ferma
(41.9500°N, 44.5167°E)
Time: 23:12:50
(UTC+00:00)

SWARM A - Visible Passes

Search period start: 28 May 2022 00:00
Search period end: 07 June 2022 00:00
Orbit: 438 x 443 km, 87.4° (Epoch: 28 May)

Date Brightness Start Highest point End Pass type
(mag) Time Alt. Az. Time Alt. Az. Time Alt. Az.
28 May 6.0 20:22:52 32° NNW 20:22:52 32° NNW 20:24:52 10° N visible
29 May 6.0 19:44:35 27° NE 19:44:35 27° NE 19:46:30 10° NNE visible
30 May 6.7 19:06:18 13° ENE 19:06:18 13° ENE 19:07:16 10° NE visible
30 May 6.5 20:39:45 22° NW 20:39:45 22° NW 20:41:34 10° NNW visible
31 May 5.6 20:01:26 40° N 20:01:26 40° N 20:03:43 10° N visible
01 Jun 5.8 19:23:06 27° NE 19:23:06 27° NE 19:25:14 10° NNE visible
01 Jun 7.2 20:56:33 11° WNW 20:56:33 11° WNW 20:57:15 10° NW visible
02 Jun 6.7 18:44:45 12° ENE 18:44:45 12° ENE 18:45:42 10° NE visible
02 Jun 6.1 20:18:12 27° WNW 20:18:12 27° WNW 20:20:28 10° NNW visible
03 Jun 5.0 19:39:49 52° N 19:39:49 52° N 19:42:28 10° N visible
04 Jun 5.7 19:01:26 27° ENE 19:01:26 27° ENE 19:03:49 10° NNE visible
04 Jun 6.9 20:34:53 14° WNW 20:34:53 14° WNW 20:36:23 10° NW visible
05 Jun 6.7 18:23:02 11° ENE 18:23:02 11° ENE 18:23:48 10° ENE visible
05 Jun 5.7 19:56:28 34° WNW 19:56:28 34° WNW 19:59:13 10° NNW visible
06 Jun 4.4 19:18:02 64° NE 19:18:02 64° NE 19:21:04 10° N visible
